Hatteras, NC

3:53 PM EDT on May 25, 2017 (GMT -0400)
Mitchell

Weather History for KHSE - March, 2013

Change the Weather History Date:

Sunday, March 31, 2013

  Actual Average Record
Temperature  
Mean Temperature 56 °F 55 °F  
Max Temperature 62 °F 62 °F 79 °F (1910)
Min Temperature 49 °F 48 °F 31 °F (1971)
Degree Days  
Heating Degree Days 9 10  
Month to date heating degree days 487 418  
Since 1 July heating degree days 2219 2343  
Cooling Degree Days 0 0  
Month to date cooling degree days 0 3  
Year to date cooling degree days 0 3  
Growing Degree Days 6 (Base 50)    
Moisture  
Dew Point 48 °F    
Average Humidity 74    
Maximum Humidity 86    
Minimum Humidity 61    
Precipitation  
Precipitation T in 0.16 in 2.56 in (1987)
Month to date precipitation 2.22 4.77  
Year to date precipitation 11.95 14.03  
Snow  
Snow 0.00 in - - ()
Month to date snowfall 0.0  
Since 1 July snowfall 0.0  
Snow Depth 0.00 in    
Sea Level Pressure  
Sea Level Pressure 30.00 in    
Wind  
Wind Speed 10 mph (South)    
Max Wind Speed 18 mph    
Max Gust Speed 26 mph    
Visibility 9 miles    
Events      
T = Trace of Precipitation, MM = Missing Value Source: NWS Daily Summary

Daily Weather History Graph

Daily Weather History Graph

Search for Another Location

Airport or City:

Trip Planner

Search our weather history database for the weather conditions in past years. The results will help you decide how hot, cold, wet, or windy it might be!

Date:

Astronomy

Mar. 31, 2013 Rise Set
Actual Time 6:50 AM EDT 7:23 PM EDT
Civil Twilight 6:24 AM EDT 7:48 PM EDT
Nautical Twilight 5:54 AM EDT 8:18 PM EDT
Astronomical Twilight 5:24 AM EDT 8:49 PM EDT
Moon No Moon Rise 9:45 AM EDT (3/31)
Length of Visible Light 13h 24m
Length of Day
12h 33m
Waning Gibbous, 78% of the Moon is Illuminated
Mar 31
Waning Gibbous
Apr 3
Last Quarter
Apr 10
New
Apr 18
First Quarter
Apr 25
Full

Hourly Weather History & Observations

Time (EDT) Temp. Dew Point Humidity Pressure Visibility Wind Dir Wind Speed Gust Speed Precip Events Conditions
12:51 AM 50.0 °F 37.9 °F 63% 30.17 in 10.0 mi East 6.9 mph - N/A   Clear
1:51 AM 50.0 °F 41.0 °F 71% 30.15 in 10.0 mi East 5.8 mph - N/A   Clear
2:51 AM 51.1 °F 41.0 °F 68% 30.13 in 10.0 mi East 6.9 mph - N/A   Clear
3:51 AM 52.0 °F 41.0 °F 66% 30.12 in 10.0 mi East 6.9 mph - N/A   Clear
4:51 AM 53.1 °F 41.0 °F 64% 30.10 in 10.0 mi East 8.1 mph - N/A   Partly Cloudy
5:51 AM 54.0 °F 44.1 °F 69% 30.09 in 10.0 mi East 10.4 mph - N/A   Mostly Cloudy
6:51 AM 54.0 °F 45.0 °F 72% 30.08 in 10.0 mi East 10.4 mph - N/A   Partly Cloudy
7:51 AM 54.0 °F 48.0 °F 80% 30.07 in 10.0 mi East 9.2 mph - N/A   Scattered Clouds
8:51 AM 54.0 °F 48.0 °F 80% 30.07 in 10.0 mi SE 3.5 mph - N/A   Overcast
9:51 AM 57.0 °F 48.0 °F 72% 30.05 in 10.0 mi South 5.8 mph - N/A   Overcast
10:51 AM 60.1 °F 48.9 °F 67% 30.03 in 10.0 mi South 6.9 mph - N/A   Clear
11:51 AM 62.1 °F 51.1 °F 67% 30.00 in 10.0 mi SSE 10.4 mph - N/A   Scattered Clouds
12:51 PM 59.0 °F 52.0 °F 78% 29.99 in 10.0 mi South 9.2 mph - N/A   Overcast
1:51 PM 61.0 °F 53.1 °F 75% 29.95 in 9.0 mi SW 10.4 mph - N/A   Overcast
2:51 PM 60.1 °F 52.0 °F 75% 29.92 in 9.0 mi SSW 11.5 mph - N/A   Partly Cloudy
3:51 PM 60.1 °F 51.1 °F 72% 29.91 in 9.0 mi SW 12.7 mph - N/A   Mostly Cloudy
4:51 PM 59.0 °F 51.1 °F 75% 29.88 in 8.0 mi SW 15.0 mph 20.7 mph N/A   Mostly Cloudy
5:51 PM 57.9 °F 51.1 °F 78% 29.89 in 8.0 mi SW 16.1 mph 23.0 mph N/A   Overcast
6:51 PM 57.9 °F 51.1 °F 78% 29.88 in 6.0 mi SW 13.8 mph 20.7 mph N/A   Haze
7:51 PM 57.0 °F 51.1 °F 81% 29.88 in 7.0 mi SW 16.1 mph 26.5 mph N/A   Scattered Clouds
8:51 PM 57.0 °F 51.1 °F 81% 29.88 in 7.0 mi WSW 13.8 mph 21.9 mph N/A   Mostly Cloudy
9:51 PM 55.9 °F 51.1 °F 84% 29.88 in 6.0 mi WSW 12.7 mph - N/A   Haze
10:51 PM 57.0 °F 52.0 °F 83% 29.88 in 6.0 mi WSW 15.0 mph - N/A   Haze
11:51 PM 57.0 °F 52.0 °F 83% 29.88 in 6.0 mi WSW 12.7 mph - N/A   Haze